Time,TemperatureF,DewpointF,PressureIn,WindDirection,WindDirectionDegrees,WindSpeedMPH,WindSpeedGustMPH,Humidity,HourlyPrecipIn,Conditions,Clouds,dailyrainin,SoftwareType,DateUTC
2013-10-27 00:11:00,38.0,31.0,-100.00,SSW,204,2.0,6.0,75,-99.99,,,-99.99,,2013-10-27 00:11:00,
2013-10-27 00:21:00,38.0,31.0,-100.00,SSW,204,2.0,6.0,75,-99.99,,,-99.99,,2013-10-27 00:21:00,
2013-10-27 00:32:00,38.0,31.0,-100.00,SSW,204,2.0,6.0,75,-99.99,,,-99.99,,2013-10-27 00:32:00,
2013-10-27 01:11:00,38.0,29.0,-100.00,NE,52,8.0,11.0,71,-99.99,,,-99.99,,2013-10-27 01:11:00,
2013-10-27 01:22:00,38.0,29.0,-100.00,NE,52,8.0,11.0,71,-99.99,,,-99.99,,2013-10-27 01:22:00,
2013-10-27 01:32:00,38.0,29.0,-100.00,NE,52,8.0,11.0,71,-99.99,,,-99.99,,2013-10-27 01:32:00,
2013-10-27 02:21:00,32.0,32.0,-100.00,SSE,156,2.0,0.0,100,-99.99,,,-99.99,,2013-10-27 02:21:00,
2013-10-27 02:42:00,37.0,29.0,-100.00,SSW,208,1.0,3.0,73,0.00,,,-99.99,,2013-10-27 02:42:00,
2013-10-27 02:52:00,37.0,29.0,-100.00,SSW,208,1.0,3.0,73,0.00,,,-99.99,,2013-10-27 02:52:00,
2013-10-27 03:02:00,37.0,29.0,-100.00,SSW,208,1.0,3.0,73,0.00,,,-99.99,,2013-10-27 03:02:00,
2013-10-27 03:21:00,39.0,19.0,-100.00,SSW,196,3.0,11.0,45,-99.99,,,-99.99,,2013-10-27 03:21:00,
2013-10-27 03:22:00,37.0,24.0,-100.00,East,80,0.0,8.0,59,-99.99,,,-99.99,,2013-10-27 03:22:00,
2013-10-27 03:44:00,37.0,22.0,-100.00,SSE,159,2.0,11.0,54,0.00,,,-99.99,,2013-10-27 03:44:00,
2013-10-27 03:54:00,39.0,19.0,-100.00,SSW,196,3.0,11.0,45,-99.99,,,-99.99,,2013-10-27 03:54:00,
2013-10-27 04:02:00,-999.0,-99.9,-100.00,SSW,196,3.0,11.0,-999,-99.99,,,-99.99,,2013-10-27 04:02:00,
2013-10-27 04:13:00,39.0,19.0,-100.00,SSW,196,3.0,11.0,45,-99.99,,,-99.99,,2013-10-27 04:13:00,
2013-10-27 04:44:00,39.0,25.0,-100.00,East,88,1.0,11.0,57,0.00,,,-99.99,,2013-10-27 04:44:00,
2013-10-27 04:54:00,39.0,25.0,-100.00,East,88,1.0,11.0,57,0.00,,,-99.99,,2013-10-27 04:54:00,
2013-10-27 05:04:00,39.0,25.0,-100.00,East,88,1.0,11.0,57,0.00,,,-99.99,,2013-10-27 05:04:00,
2013-10-27 08:11:00,41.0,15.0,-100.00,SSE,151,11.0,35.0,34,-99.99,,,-99.99,,2013-10-27 08:11:00,
2013-10-27 08:52:00,44.0,13.0,-100.00,ESE,110,19.0,52.0,28,-99.99,,,-99.99,,2013-10-27 08:52:00,
2013-10-27 09:02:00,44.0,13.0,-100.00,ESE,110,19.0,52.0,28,-99.99,,,-99.99,,2013-10-27 09:02:00,
2013-10-27 09:12:00,44.0,13.0,-100.00,ESE,110,19.0,52.0,28,-99.99,,,-99.99,,2013-10-27 09:12:00,
2013-10-27 09:21:00,44.0,12.0,-100.00,ESE,122,13.0,35.0,27,-99.99,,,-99.99,,2013-10-27 09:21:00,
2013-10-27 09:43:00,44.0,11.0,-100.00,SE,128,5.0,25.0,26,0.00,,,-99.99,,2013-10-27 09:43:00,
2013-10-27 09:53:00,44.0,11.0,-100.00,SE,128,5.0,25.0,26,0.00,,,-99.99,,2013-10-27 09:53:00,
2013-10-27 10:12:00,44.0,14.0,-100.00,ESE,112,12.0,26.0,29,-99.99,,,-99.99,,2013-10-27 10:12:00,
2013-10-27 10:23:00,44.0,15.0,-100.00,East,101,6.0,27.0,30,-99.99,,,-99.99,,2013-10-27 10:23:00,
2013-10-27 10:42:00,45.0,15.0,-100.00,SW,230,2.0,13.0,30,0.00,,,-99.99,,2013-10-27 10:42:00,
2013-10-27 10:53:00,45.0,15.0,-100.00,SW,230,2.0,13.0,30,0.00,,,-99.99,,2013-10-27 10:53:00,
2013-10-27 11:02:00,45.0,15.0,-100.00,SW,230,2.0,13.0,30,0.00,,,-99.99,,2013-10-27 11:02:00,
2013-10-27 11:42:00,42.0,19.0,-100.00,South,175,9.0,23.0,39,0.00,,,-99.99,,2013-10-27 11:42:00,
2013-10-27 11:52:00,42.0,21.0,-100.00,SSW,204,3.0,19.0,43,-99.99,,,-99.99,,2013-10-27 11:52:00,
2013-10-27 12:12:00,41.0,23.0,-100.00,ENE,66,1.0,11.0,48,-99.99,,,-99.99,,2013-10-27 12:12:00,
2013-10-27 12:22:00,41.0,25.0,-100.00,North,9,5.0,14.0,52,-99.99,,,-99.99,,2013-10-27 12:22:00,
2013-10-27 12:32:00,41.0,25.0,-100.00,North,9,5.0,14.0,52,-99.99,,,-99.99,,2013-10-27 12:32:00,
2013-10-27 12:42:00,41.0,25.0,-100.00,North,9,5.0,14.0,52,-99.99,,,-99.99,,2013-10-27 12:42:00,
2013-10-27 12:52:00,41.0,27.0,-100.00,NNW,331,3.0,25.0,56,-99.99,,,-99.99,,2013-10-27 12:52:00,
2013-10-27 13:12:00,41.0,27.0,-100.00,NNW,331,3.0,25.0,56,-99.99,,,-99.99,,2013-10-27 13:12:00,
2013-10-27 13:21:00,41.0,28.0,-100.00,ENE,59,4.0,13.0,59,-99.99,,,-99.99,,2013-10-27 13:21:00,
2013-10-27 13:42:00,41.0,27.0,-100.00,NNE,30,3.0,17.0,57,0.00,,,-99.99,,2013-10-27 13:42:00,
2013-10-27 13:52:00,41.0,28.0,-100.00,NNE,33,5.0,14.0,60,-99.99,,,-99.99,,2013-10-27 13:52:00,
2013-10-27 14:11:00,39.0,28.0,-100.00,NE,35,11.0,23.0,64,-99.99,,,-99.99,,2013-10-27 14:11:00,
2013-10-27 14:21:00,39.0,28.0,-100.00,NE,35,11.0,23.0,64,-99.99,,,-99.99,,2013-10-27 14:21:00,
2013-10-27 14:32:00,39.0,28.0,-100.00,NE,35,11.0,23.0,64,-99.99,,,-99.99,,2013-10-27 14:32:00,
2013-10-27 14:52:00,35.0,27.0,-100.00,NNE,12,5.0,18.0,72,-99.99,,,-99.99,,2013-10-27 14:52:00,
2013-10-27 15:11:00,38.0,30.0,-100.00,WNW,292,6.0,21.0,74,-99.99,,,-99.99,,2013-10-27 15:11:00,
2013-10-27 15:21:00,37.0,30.0,-100.00,South,187,1.0,10.0,75,-99.99,,,-99.99,,2013-10-27 15:21:00,
2013-10-27 15:44:00,36.0,29.0,-100.00,NW,307,0.0,11.0,76,0.00,,,-99.99,,2013-10-27 15:44:00,
2013-10-27 15:54:00,36.0,31.0,-100.00,West,278,1.0,11.0,83,-99.99,,,-99.99,,2013-10-27 15:54:00,
2013-10-27 16:13:00,35.0,32.0,-100.00,NE,47,5.0,10.0,87,-99.99,,,-99.99,,2013-10-27 16:13:00,
2013-10-27 16:22:00,32.0,31.0,-100.00,NNE,28,4.0,11.0,95,-99.99,,,-99.99,,2013-10-27 16:22:00,
2013-10-27 16:24:00,32.0,30.0,-100.00,NNE,30,3.0,14.0,92,-99.99,,,-99.99,,2013-10-27 16:24:00,
2013-10-27 16:33:00,32.0,30.0,-100.00,NNE,30,3.0,14.0,92,-99.99,,,-99.99,,2013-10-27 16:33:00,
2013-10-27 16:43:00,32.0,30.0,-100.00,NNE,30,3.0,14.0,92,-99.99,,,-99.99,,2013-10-27 16:43:00,
2013-10-27 16:53:00,32.0,31.0,-100.00,NNE,28,4.0,11.0,95,-99.99,,,-99.99,,2013-10-27 16:53:00,
2013-10-27 17:04:00,32.0,31.0,-100.00,NNE,28,4.0,11.0,95,-99.99,,,-99.99,,2013-10-27 17:04:00,
2013-10-27 17:13:00,32.0,31.0,-100.00,NNE,28,4.0,11.0,95,-99.99,,,-99.99,,2013-10-27 17:13:00,
2013-10-27 17:43:00,31.0,30.0,-100.00,NNE,32,4.0,11.0,97,0.00,,,-99.99,,2013-10-27 17:43:00,
2013-10-27 17:53:00,31.0,30.0,-100.00,NNE,32,4.0,11.0,97,0.00,,,-99.99,,2013-10-27 17:53:00,
2013-10-27 18:12:00,31.0,31.0,-100.00,NNE,28,10.0,21.0,98,-99.99,,,-99.99,,2013-10-27 18:12:00,
2013-10-27 18:22:00,31.0,31.0,-100.00,NNE,28,10.0,21.0,98,-99.99,,,-99.99,,2013-10-27 18:22:00,
2013-10-27 18:32:00,31.0,31.0,-100.00,NNE,28,10.0,21.0,98,-99.99,,,-99.99,,2013-10-27 18:32:00,
2013-10-27 19:11:00,35.0,32.0,-100.00,West,271,4.0,9.0,88,-99.99,,,-99.99,,2013-10-27 19:11:00,
2013-10-27 19:22:00,35.0,32.0,-100.00,West,271,4.0,9.0,88,-99.99,,,-99.99,,2013-10-27 19:22:00,
2013-10-27 19:42:00,38.0,31.0,-100.00,ESE,103,10.0,20.0,77,0.00,,,-99.99,,2013-10-27 19:42:00,
2013-10-27 19:52:00,38.0,31.0,-100.00,ESE,103,10.0,20.0,77,0.00,,,-99.99,,2013-10-27 19:52:00,
2013-10-27 20:12:00,36.0,32.0,-100.00,SE,128,9.0,27.0,84,-99.99,,,-99.99,,2013-10-27 20:12:00,
2013-10-27 20:21:00,36.0,32.0,-100.00,East,95,14.0,35.0,84,-99.99,,,-99.99,,2013-10-27 20:21:00,
2013-10-27 20:22:00,36.0,32.0,-100.00,ESE,104,11.0,35.0,85,-99.99,,,-99.99,,2013-10-27 20:22:00,
2013-10-27 20:42:00,36.0,32.0,-100.00,East,91,14.0,33.0,84,0.00,,,-99.99,,2013-10-27 20:42:00,
2013-10-27 20:52:00,36.0,32.0,-100.00,East,95,14.0,35.0,84,-99.99,,,-99.99,,2013-10-27 20:52:00,
2013-10-27 21:02:00,36.0,32.0,-100.00,East,95,14.0,35.0,84,-99.99,,,-99.99,,2013-10-27 21:02:00,
2013-10-27 21:11:00,36.0,32.0,-100.00,East,95,14.0,35.0,84,-99.99,,,-99.99,,2013-10-27 21:11:00,
2013-10-27 21:43:00,37.0,32.0,-100.00,SE,130,10.0,32.0,83,0.00,,,-99.99,,2013-10-27 21:43:00,
2013-10-27 21:54:00,37.0,31.0,-100.00,SE,136,12.0,34.0,80,-99.99,,,-99.99,,2013-10-27 21:54:00,
2013-10-27 22:13:00,37.0,32.0,-100.00,SE,144,8.0,42.0,81,-99.99,,,-99.99,,2013-10-27 22:13:00,
2013-10-27 22:21:00,38.0,32.0,-100.00,SE,125,6.0,42.0,80,-99.99,,,-99.99,,2013-10-27 22:21:00,
2013-10-27 22:24:00,37.0,32.0,-100.00,SE,144,8.0,42.0,81,-99.99,,,-99.99,,2013-10-27 22:24:00,
2013-10-27 22:43:00,38.0,32.0,-100.00,NNW,340,9.0,36.0,78,0.00,,,-99.99,,2013-10-27 22:43:00,
2013-10-27 22:54:00,38.0,32.0,-100.00,SE,125,6.0,42.0,80,-99.99,,,-99.99,,2013-10-27 22:54:00,
2013-10-27 23:03:00,38.0,32.0,-100.00,SE,125,6.0,42.0,80,-99.99,,,-99.99,,2013-10-27 23:03:00,
2013-10-27 23:11:00,38.0,32.0,-100.00,SE,125,6.0,42.0,80,-99.99,,,-99.99,,2013-10-27 23:11:00,
2013-10-27 23:42:00,38.0,31.0,-100.00,SE,128,17.0,51.0,77,0.00,,,-99.99,,2013-10-27 23:42:00,
2013-10-27 23:52:00,38.0,31.0,-100.00,SE,128,17.0,51.0,77,0.00,,,-99.99,,2013-10-27 23:52:00,